Regional Weather Roundup
Issued by NWS

Home | Current Version | Previous Version | Graphics & Text | Print | Product List | Glossary On
Versions: 1 2 3 4 5 6 7 8 9 10 11 12 13 14 15 16 17 18 19 20 21 22 23 24 25 26 27
000
ASUS45 KBOU 300607
RWRCO

WEATHER ROUNDUP FOR COLORADO
NATIONAL WEATHER SERVICE DENVER/BOULDER CO
1200 AM MDT MON MAY 30 2016

NOTE: "FAIR" INDICATES FEW OR NO CLOUDS BELOW 12000 FEET WITH NO
SIGNIFICANT WEATHER AND/OR OBSTRUCTIONS TO VISIBILITY.

COZ001>005-013-030-031-300700-
...NORTHWEST COLORADO...

CITY           SKY/WX    TMP DP  RH WIND       PRES   REMARKS
CRAIG          FAIR      44  39  82 CALM      30.16F
HAYDEN         FAIR      48  36  61 E8        30.17F
MEEKER         FAIR      46  39  76 NE7       30.17F
MOUNT WERNER   NOT AVBL
STEAMBOAT SPGS FAIR      43  36  74 N5        30.20S
WALDEN         NOT AVBL
$$

COZ006>008-011-300700-
...WEST CENTRAL VALLEYS...

CITY           SKY/WX    TMP DP  RH WIND       PRES   REMARKS
GRAND JUNCTION FAIR      61  37  41 W6        30.06S
MONTROSE       FAIR      52  35  52 S7        30.13R
EAGLE          FAIR      48  36  61 CALM      30.23R
RIFLE          FAIR      49  38  65 SE5       30.13S
DELTA          FAIR      58  35  41 N3        30.09S
NUCLA          FAIR      55  30  38 E5        30.13R
$$

COZ017>023-064>068-300700-
...SOUTHWEST COLORADO...

CITY           SKY/WX    TMP DP  RH WIND       PRES   REMARKS
DURANGO        FAIR      51  27  39 N3        30.13S
CORTEZ         FAIR      48  30  49 N3        30.09S
PAGOSA SPRINGS FAIR      48  26  42 CALM      30.21F
TELLURIDE      FAIR      45  28  51 SE7       30.32S
WOLF CREEK PAS FAIR      36  27  69 NE7       30.49F
$$

COZ009-010-012-014-032>034-037-058>063-300700-
...CENTRAL COLORADO...

CITY           SKY/WX    TMP DP  RH WIND       PRES   REMARKS
ASPEN          FAIR      42  31  64 SW7       30.25S
BUENA VISTA    FAIR      42  27  56 W6        30.28S
COPPER MTN     NOT AVBL
BERTHOUD PASS  FAIR      32  23  69 W6        30.49R WCI  26
COTTONWOOD PAS MOCLDY    50  23  34 W8        30.37S
GUNNISON       FAIR      45  30  57 NE6       30.29S
KREMMLING      FAIR      41  34  75 CALM      30.26S
LEADVILLE      FAIR      35  25  66 E6        30.36F WCI  30
MONARCH PASS   MOCLDY    39  23  52 E12       30.58F
SALIDA         FAIR      49  32  52 W7        30.32F
SUNLIGHT       FAIR      43  32  65 CALM      30.42F
WILKERSON PASS FAIR      41  27  56 SW10      30.47S
$$

COZ069>075-300700-
...SAN LUIS VALLEY/SANGRE DE CRISTO MOUNTAINS...

CITY           SKY/WX    TMP DP  RH WIND       PRES   REMARKS
ALAMOSA        FAIR      47  37  68 CALM      30.22S
LA VETA PASS   FAIR      45  30  57 SE7       30.38F
SAGUACHE       FAIR      45  34  65 NW14      30.26S
$$

COZ035-036-038>040-300700-
...NORTHERN COLORADO FRONT RANGE...

CITY           SKY/WX    TMP DP  RH WIND       PRES   REMARKS
DENVER INTL AP FAIR      54  43  66 S10       30.11F
DMNS CITY PARK   N/A     55  44  65 SE8       30.11F
AURORA         PTCLDY    51  43  74 S10       30.13F
FRONT RANGE AP NOT AVBL
ERIE MUNI ARPT FAIR      50  46  84 CALM      30.11S
BOULDER MUN AP FAIR      55  41  58 SW5       30.11F
CENTENNIAL     FAIR      51  41  68 S6        30.14F
BROOMFIELD     FAIR      54  41  62 NW6       30.14S
FORT COLLINS   FAIR      55  43  62 S6        30.10S
LONGMONT       FAIR      53  46  79 W3        30.12F
$$

COZ041-046-047-076>085-087-088-300700-
...PIKES PEAK/PALMER DIVIDE AND SOUTHERN FOOTHILLS...

CITY           SKY/WX    TMP DP  RH WIND       PRES   REMARKS
COLO. SPRINGS  FAIR      54  40  59 NE10      30.19F
A. F. ACADEMY  FAIR      45  39  81 CALM      30.22R
SCHRIEVER AFB  NOT AVBL
ELLICOTT       FAIR       1 N/A N/A E9        30.17F WCI -14
FALCON         FAIR      47  40  76 CALM      30.24S
FORT CARSON    FAIR      52  44  72 NW10      30.17S
LIMON          FAIR      52  46  80 SE9       30.16S
MONUMENT HILL  FAIR      43  37  81 S10       30.24R
TRINIDAD       FAIR      57  43  59 W18G24    30.16R
$$

COZ042>045-048>051-090-091-300700-
...NORTHEAST COLORADO...

CITY           SKY/WX    TMP DP  RH WIND       PRES   REMARKS
GREELEY ARPT   FAIR      54  45  71 W3        30.09S
AKRON          FAIR      54  50  86 SE12      30.11R
BURLINGTON     FAIR      56  50  80 SW10      30.12F
WRAY           FAIR      61  50  67 E14G21    30.11F
STERLING       FAIR      61  52  72 SE20G30   30.04S
HOLYOKE        FAIR      61  52  72 S20G29    30.08R
FORT MORGAN    FAIR      55  47  76 NE8       30.09S
$$

COZ086-089-092>099-300700-
...SOUTHEAST COLORADO...

CITY           SKY/WX    TMP DP  RH WIND       PRES   REMARKS
PUEBLO         FAIR      57  49  74 E7        30.10S
LA JUNTA       FAIR      59  46  62 SE8       30.10S
LAMAR          FAIR      57  48  72 SE9       30.09F
SPRINGFIELD      N/A     53  49  86 SW15G22   30.10F
$$




USA.gov is the U.S. government's official web portal to all federal, state and local government web resources and services.